Wetterdaten: aktuell Donnerstag, 07.12.2023 03:50
Datum Zeit Temp. 2m rel. Feuchte Luftdruck Regen Wind Richtung Richtung Sonne ET UV-Index Solar Taupunkt Ben
07.12.2023 03:50 0,8 C 94 % 1020,5 hPa 0,0 mm 0,0 km/h (0 Bft) W-NW 303 0 min 0,0 mm 0,0 UV-I 0 W/m -0,1 C 2,2 km/h (1 Bft)
07.12.2023 02:50 0,8 C 93 % 1020,2 hPa 0,0 mm 0,0 km/h (0 Bft) NW 305 0 min 0,0 mm 0,0 UV-I 0 W/m -0,2 C 0,0 km/h (0 Bft)
07.12.2023 01:50 1,8 C 94 % 1020,0 hPa 0,0 mm 0,0 km/h (0 Bft) NW 305 0 min 0,0 mm 0,0 UV-I 0 W/m 0,9 C 0,0 km/h (0 Bft)
07.12.2023 00:50 2,0 C 94 % 1020,1 hPa 0,0 mm 0,2 km/h (0 Bft) W-NW 303 0 min 0,0 mm 0,0 UV-I 0 W/m 1,1 C 2,2 km/h (1 Bft)
06.12.2023 23:50 1,9 C 94 % 1019,9 hPa 0,0 mm 3,3 km/h (1 Bft) W 272 0 min 0,0 mm 0,0 UV-I 0 W/m 1,0 C 8,9 km/h (2 Bft)
06.12.2023 22:50 2,2 C 93 % 1019,1 hPa 0,0 mm 0,1 km/h (0 Bft) W-NW 299 0 min 0,0 mm 0,0 UV-I 0 W/m 1,2 C 2,2 km/h (1 Bft)
06.12.2023 21:50 2,9 C 93 % 1018,8 hPa 0,0 mm 0,9 km/h (0 Bft) W-NW 300 0 min 0,0 mm 0,0 UV-I 0 W/m 1,9 C 4,4 km/h (1 Bft)
06.12.2023 20:50 3,2 C 93 % 1018,5 hPa 0,0 mm 1,5 km/h (1 Bft) W-NW 294 0 min 0,0 mm 0,0 UV-I 0 W/m 2,2 C 6,7 km/h (2 Bft)
06.12.2023 19:50 3,7 C 91 % 1018,1 hPa 0,0 mm 0,6 km/h (0 Bft) NW 310 0 min 0,0 mm 0,0 UV-I 0 W/m 2,4 C 4,4 km/h (1 Bft)
06.12.2023 18:50 3,8 C 90 % 1017,7 hPa 0,3 mm 0,0 km/h (0 Bft) NW 315 0 min 0,0 mm 0,0 UV-I 0 W/m 2,3 C 2,2 km/h (1 Bft)
06.12.2023 17:50 4,8 C 88 % 1016,9 hPa 0,5 mm 12,5 km/h (3 Bft) NW 305 0 min 0,0 mm 0,0 UV-I 0 W/m 3,0 C 26,7 km/h (4 Bft)
06.12.2023 16:50 5,2 C 85 % 1016,3 hPa 0,0 mm 5,1 km/h (1 Bft) N-NW 330 20 min 0,0 mm 0,0 UV-I 0 W/m 2,9 C 15,5 km/h (3 Bft)
06.12.2023 15:50 5,2 C 86 % 1015,5 hPa 0,0 mm 5,5 km/h (1 Bft) N-NW 327 25 min 0,0 mm 0,0 UV-I 48 W/m 3,1 C 13,3 km/h (3 Bft)
06.12.2023 14:50 4,9 C 88 % 1015,2 hPa 0,0 mm 2,6 km/h (1 Bft) NW 311 0 min 0,0 mm 0,0 UV-I 56 W/m 3,1 C 8,9 km/h (2 Bft)
06.12.2023 13:50 4,8 C 90 % 1014,9 hPa 0,0 mm 0,0 km/h (0 Bft) W-NW 291 0 min 0,0 mm 0,0 UV-I 74 W/m 3,3 C 2,2 km/h (1 Bft)
06.12.2023 12:50 4,6 C 93 % 1014,7 hPa 0,0 mm 2,8 km/h (1 Bft) W-NW 300 0 min 0,0 mm 0,0 UV-I 101 W/m 3,6 C 13,3 km/h (3 Bft)
06.12.2023 11:50 4,2 C 93 % 1014,5 hPa 0,0 mm 4,3 km/h (1 Bft) NW 311 0 min 0,0 mm 0,0 UV-I 54 W/m 3,2 C 11,1 km/h (2 Bft)
06.12.2023 10:50 3,8 C 94 % 1014,3 hPa 0,0 mm 2,5 km/h (1 Bft) NW 304 0 min 0,0 mm 0,0 UV-I 32 W/m 2,9 C 8,9 km/h (2 Bft)
06.12.2023 09:50 3,4 C 94 % 1013,8 hPa 0,0 mm 0,2 km/h (0 Bft) N-NW 329 0 min 0,0 mm 0,0 UV-I 18 W/m 2,5 C 2,2 km/h (1 Bft)
06.12.2023 08:50 2,8 C 94 % 1013,3 hPa 0,0 mm 1,5 km/h (1 Bft) W-NW 282 0 min 0,0 mm 0,0 UV-I 0 W/m 1,9 C 6,7 km/h (2 Bft)
06.12.2023 07:50 2,5 C 94 % 1012,8 hPa 0,0 mm 2,3 km/h (1 Bft) NW 311 0 min 0,0 mm 0,0 UV-I 0 W/m 1,6 C 11,1 km/h (2 Bft)
06.12.2023 06:50 2,3 C 94 % 1012,5 hPa 0,0 mm 0,1 km/h (0 Bft) NW 308 0 min 0,0 mm 0,0 UV-I 0 W/m 1,4 C 2,2 km/h (1 Bft)
06.12.2023 05:50 2,0 C 94 % 1011,7 hPa 0,0 mm 0,7 km/h (0 Bft) NW 306 0 min 0,0 mm 0,0 UV-I 0 W/m 1,1 C 8,9 km/h (2 Bft)
06.12.2023 04:50 1,7 C 94 % 1011,3 hPa 0,0 mm 1,0 km/h (0 Bft) NW 311 0 min 0,0 mm 0,0 UV-I 0 W/m 0,8 C 8,9 km/h (2 Bft)
06.12.2023 04:00 1,7 C 94 % 1011,0 hPa 0,0 mm 1,5 km/h (1 Bft) NW 311 0 min 0,0 mm 0,0 UV-I 0 W/m 0,8 C 13,3 km/h (3 Bft)
_ Min-Zeit 02:50 16:25 04:15 - 10:45 - - - - - - 02:45 13:55
Minimum _ 0,7 C 84 % 1010,8 hPa - 0,0 km/h (0 Bft) - - - - - - -0,2 C 0,0 km/h (0 Bft)
_ Max-Zeit 15:55 04:00 03:35 17:45 17:50 - - 15:30 13:00 04:00 13:20 12:55 17:50
Maximum _ 5,3 C 94 % 1020,6 hPa 0,5 mm 12,5 km/h
NW (3 Bft)
- - 5 min 0,0 mm 0,0 UV-I 129 W/m 3,7 C 26,7 km/h
NW (4 Bft)
Durchschnitt _ 3,0 C 92 % 1015,7 hPa #0,8 mm 1,7 km/h (1 Bft) NW - #0 min. #0,000 mm 0,0 UV-I 0 W/m 1,9 C 7,9 km/h (2 Bft)



© 1998 - 2023 www.pulheimwetter.de